User: anonymous   Login
Location: Seattle
(47.6064°N, 122.3308°W)
Time: 15:55:40
(UTC-08:00)
Language:

Altair - Orbit

View from above orbital plane
View from above orbital plane
View from above satellite
View from above satellite

Ground track
Ground track

The orbit data is extracted from the following two-line orbital elements,

1    50U 60009B   20340.24097542 -.00000024 +00000-0 +58434-3 0  9996
2    50 047.2321 311.2043 0112847 114.6612 246.5977 12.20113320691072
Epoch (UTC): 05 December 2020 05:47:00
Eccentricity: 0.0112847
inclination: 47.2321°
perigee height: 1502 km
apogee height: 1682 km
right ascension of ascending node: 311.2043°
argument of perigee: 114.6612°
revolutions per day: 12.20113320
mean anomaly at epoch: 246.5977°
orbit number at epoch: 69107

The dashed part of the orbit path shows where the satellite is in the earth's shadow,  

DLR